Regional Weather Roundup
Issued by NWS

Home | Current Version | Previous Version | Text Only | Print | Product List | Glossary Off
Versions: 1 2 3 4 5 6 7 8 9 10 11 12 13 14 15 16 17 18 19 20 21 22 23 24 25 26 27 28 29 30 31 32 33 34 35 36 37 38 39 40 41 42 43 44 45 46 47 48 49 50

000
ASUS43 KFSD 251910
RWRSD

WEATHER ROUNDUP FOR SOUTH DAKOTA
NATIONAL WEATHER SERVICE SIOUX FALLS SD
200 PM CDT MON MAY 25 2015

NOTE: "FAIR" INDICATES FEW OR NO CLOUDS BELOW 12,000 FEET WITH NO
SIGNIFICANT WEATHER AND/OR OBSTRUCTIONS TO VISIBILITY.


SDZ001>005-009-010-012>017-252000-
NORTHWEST AND NORTH CENTRAL SOUTH DAKOTA

CITY           SKY/WX    TMP DP  RH WIND       PRES   REMARKS
BUFFALO          N/A     56  53  90 NE12      29.82S
FAITH            N/A     57  54  89 NE12      29.86R
MOBRIDGE       LGT RAIN  61  58  90 E10       29.82R
$$

SDZ012>016-024>037-041>051-057-063-072>074-252000-
SOUTHWEST AND SOUTH CENTRAL SOUTH DAKOTA

CITY           SKY/WX    TMP DP  RH WIND       PRES   REMARKS
RAPID CTY ARPT LGT RAIN  58  52  80 N16       29.83S
PIERRE         CLOUDY    60  54  80 NE16G23   29.79R
CUSTER         CLOUDY    56  46  69 VRB6      29.88S
ELLSWORTH AFB  CLOUDY    58  53  83 N18       29.83
PHILIP         CLOUDY    62  53  72 NE9       29.80S
PINE RIDGE     CLOUDY    58  50  75 CALM      29.83S
SPEARFISH      LGT RAIN  52  52 100 NE5       29.90R
WINNER         CLOUDY    62  55  77 NE9       29.78S
$$

SDZ004>011-016>023-039-040-252000-
NORTHEAST SOUTH DAKOTA

CITY           SKY/WX    TMP DP  RH WIND       PRES   REMARKS
ABERDEEN       CLOUDY    67  53  61 NE23G33   29.78F
WATERTOWN      CLOUDY    58  54  86 N16       29.74F
BROOKINGS      CLOUDY    64  57  77 NW12      29.75S
SISSETON         N/A     63  55  75 NE28G37   29.73F
$$

SDZ017-020-022-023-036>040-048>070-252000-
SOUTHEAST SOUTH DAKOTA

CITY           SKY/WX    TMP DP  RH WIND       PRES   REMARKS
SIOUX FALLS    CLOUDY    68  58  70 W5        29.75R
HURON          CLOUDY    63  56  78 NE8       29.76R
CHAMBERLAIN    CLOUDY    62  56  80 CALM      29.78R
MITCHELL       CLOUDY    67  58  72 VRB6      29.77S
YANKTON        MOSUNNY   70  61  73 S3        29.74S
$$

ABBREVIATIONS USED IN REMARKS
   TC - TEMPERATURE IN CELSIUS
  WCI - WIND CHILL INDEX
   HX - HEAT INDEX
  VSB - VISIBILITY




USA.gov is the U.S. government's official web portal to all federal, state and local government web resources and services.